Location: G�kdere
(37.0328°N, 30.9000°E)
Time: 03:09:46
(UTC+00:00)

Cosmos 968 Rocket - Pass Details

Date: 03 March 2021
Orbit: 740 x 771 km, 74.0° (Epoch: 19 April)

Event Time Altitude Azimuth Distance (km) Brightness Sun altitude
Rises 16:10:48 0° 349° (NNW) 3,247 6.8 -4.5°
Reaches altitude 10° 16:13:18 10° 356° (N) 2,318 6.0 -4.9°
Maximum altitude 16:18:19 43° 67° (ENE) 1,074 3.9 -5.9°
Drops below altitude 10° 16:23:17 10° 139° (SE) 2,306 5.6 -6.9°
Sets 16:25:46 0° 146° (SE) 3,227 6.4 -7.4°
